Skip Page Navigation
NASA JPL Caltech
NASA Logo - Jet Propulsion Laboratory + View the NASA Portal
+ Center for Near-Earth Object Studies
JPL Home Earth Solar System Stars & Galaxies Technology
JPL Solar System Dynamics
BODIES ORBITS EPHEMERIDES TOOLS PHYSICAL DATA DISCOVERY FAQ SITE MAP
IMPORTANT: The SSD Announcement email list is now available. Major changes are coming in the near future, including possible hostname and/or URL changes. To be notified of such changes, subscribe to this email list.

Please visit this page for more details.


JPL Small-Body Database Browser
Search: [ help ]  
461077 (2015 AM11)
Classification: Main-belt Asteroid          SPK-ID: 2461077
Ephemeris | Orbit Diagram | Orbital Elements | Mission Design | Physical Parameters | Discovery Circumstances ]

[ show orbit diagram ]
Orbital Elements at Epoch 2458600.5 (2019-Apr-27.0) TDB
Reference: JPL 13 (heliocentric ecliptic J2000)
 Element Value Uncertainty (1-sigma)   Units 
e .08347545688552493 7.8896e-08  
a 3.128747158656374 7.6709e-08 au
q 2.867573560108245 2.9007e-07 au
i 16.10099342191283 8.5313e-06 deg
node 357.9505942538494 2.1558e-05 deg
peri 22.84364465654806 4.9166e-05 deg
M 3.54964353612178 4.6488e-05 deg
tp 2458580.568665823482
(2019-Apr-07.06866582)
0.00026086 TDB
period 2021.408693726419
5.53
7.434e-05
2.035e-07
d
yr
n .1780936240737881 6.5496e-09 deg/d
Q 3.389920757204503 8.3112e-08 au
  Orbit Determination Parameters
   # obs. used (total)      142  
   data-arc span      5355 days (14.66 yr)  
   first obs. used      2004-01-18  
   last obs. used      2018-09-16  
   planetary ephem.      DE431  
   SB-pert. ephem.      SB431-N16  
   condition code      0  
   norm. resid. RMS      .55698  
   source      ORB  
   producer      Otto Matic  
   solution date      2018-Oct-04 12:26:20  

Additional Information
 Earth MOID = 1.87308 au 
 Jupiter MOID = 2.0752 au 
 T_jup = 3.148 
[ show covariance matrix ]

Ephemeris | Orbit Diagram | Orbital Elements | Mission Design | Physical Parameters | Discovery Circumstances ]

Physical Parameter Table
Parameter Symbol Value Units Sigma Reference Notes
absolute magnitude H 15.8   n/a MPO413534  
diameter diameter 3.181 km 1.201 urn:nasa:pds:neowise_diameters_albedos::2.0[mainbelt] (http://adsabs.harvard.edu/abs/2011ApJ...741...68M)  
geometric albedo albedo 0.076   0.036 urn:nasa:pds:neowise_diameters_albedos::2.0[mainbelt] (http://adsabs.harvard.edu/abs/2011ApJ...741...68M)  

461077 (2015 AM11)          Discovered 2007-Sep-13 by Mt. Lemmon Survey at Mount Lemmon
Reference: Last Updated: 2016-02-25

Alternate Designations
 2015 AM11 = 2010 JG142 
Ephemeris | Orbit Diagram | Orbital Elements | Mission Design | Physical Parameters | Discovery Circumstances ]
ABOUT SSD CREDITS/AWARDS PRIVACY/COPYRIGHT GLOSSARY LINKS
FirstGov 2019-Oct-19 03:28 UT
(server date/time)  
NASA Home Page
Site Manager:   Ryan S. Park
Webmaster  Alan B. Chamberlin